Simultaneous Nadir Overpasses (SNOs) Predictions

Prediction of SNOs between METOP-A and TERRA Satellite Orbit:

Table of predicted SNOs for the next 14.0 days since TLE Epoch: 3/23/2012
Index Date (METOP-A) Time (METOP-A) METOP-A Lat,Lon Date (TERRA) Time (TERRA) TERRA Lat,Lon Distance(km) Time Diff (sec)
1 03/25/2012 11:42:59 -81.30,-128.75 03/25/2012 11:43:23 -81.30,-128.70 0.97 24
2 03/25/2012 12:33:38 81.30, 39.23 03/25/2012 12:32:49 81.31, 39.09 2.46 49
3 03/28/2012 07:17:21 -81.29, -62.53 03/28/2012 07:17:36 -81.29, -62.35 3.03 15
4 03/28/2012 08:08:00 81.30, 105.45 03/28/2012 08:07:02 81.30, 105.41 0.76 58
5 03/31/2012 02:51:40 -81.30, 4.39 03/31/2012 02:51:47 -81.30, 4.29 1.81 7
6 03/31/2012 03:42:20 81.30, 171.98 03/31/2012 03:41:13 81.31, 172.02 0.88 67
7 04/02/2012 21:35:22
